Overview Statistics Trail Chart Weather Telemetry Raw packets
 

This is the latest recevied weather packets stored in our database for station/object KB1RMA-4. If no packets are shown the sender has not sent any weather packets the latest 10 day(s).

<< 1 2 3 4 5 >>
Time Temp. Humidity Pressure Rain* Wind** Luminosity Snow
1788639454 17.78° C 84% 1011.6 hPa 0 mm - 113 W/m² -
1788639149 17.78° C 84% 1011.6 hPa 0 mm - 98 W/m² -
1788638844 17.78° C 84% 1011.4 hPa 0 mm - 102 W/m² -
1788638539 17.78° C 84% 1011.5 hPa 0 mm - 141 W/m² -
1788638237 17.78° C 84% 1011.4 hPa 0 mm - 111 W/m² -
1788637932 17.78° C 84% 1011.5 hPa 0 mm - 113 W/m² -
1788637628 17.78° C 83% 1011.4 hPa 0 mm - 128 W/m² -
1788637327 17.78° C 82% 1011.3 hPa 0 mm - 126 W/m² -
1788637021 18.33° C 81% 1011.7 hPa 2.29 mm - 98 W/m² -
1788636717 18.33° C 80% 1011.5 hPa 2.29 mm - 91 W/m² -
1788636412 18.89° C 78% 1011.7 hPa 0 mm - 94 W/m² -
1788636109 20° C 75% 1011.6 hPa 0 mm - 69 W/m² -
1788635808 20° C 72% 1011.5 hPa 0 mm - 55 W/m² -
1788635506 20.56° C 71% 1011.5 hPa 0 mm - 213 W/m² -
1788635205 20.56° C 70% 1011.4 hPa 0 mm - 359 W/m² -
1788634904 20.56° C 70% 1011.3 hPa 0 mm - 322 W/m² -
1788634603 20.56° C 70% 1011.5 hPa 0 mm - 319 W/m² -
1788634298 20.56° C 70% 1011.4 hPa 0 mm - 363 W/m² -
1788633998 20° C 72% 1011.5 hPa 0 mm - 206 W/m² -
1788633697 20° C 72% 1011.3 hPa 0 mm - 175 W/m² -
1788633396 20° C 71% 1011.2 hPa 0 mm - 169 W/m² -
1788633092 20.56° C 70% 1011.1 hPa 0 mm - 170 W/m² -
1788632791 20.56° C 69% 1011.2 hPa 0 mm - 191 W/m² -
1788632490 21.11° C 67% 1011 hPa 0 mm - 335 W/m² -
1788632186 21.11° C 67% 1011.2 hPa 0 mm - 375 W/m² -

* Rain latest hour (hover to see other rain measurements)
** Current wind speed in m/s (hover to see current wind gust speed)